Location: Newark
(25.3833°N, 97.4000°E)
Time: 22:24:09
(UTC+00:00)

First-Move - Pass Details

Date: 26 February 2020
Orbit: 576 x 669 km, 97.6° (Epoch: 06 April)

Event Time Altitude Azimuth Distance (km) Brightness Sun altitude
Rises 22:14:23 0° 41° (NE) 2,990 ? -23.7°
Reaches altitude 10° 22:18:18 10° 75° (ENE) 2,056 ? -22.8°
Maximum altitude 22:19:42 11° 94° (E) 1,959 ? -22.5°
Drops below altitude 10° 22:21:06 10° 112° (ESE) 2,038 ? -22.2°
Sets 22:24:54 0° 147° (SSE) 2,918 ? -21.4°
